Location: Branche des Alpilles
(43.6087°N, 4.6976°E)
Time: 09:08:51
(UTC+00:00)

NOAA 16 DEB - Visible Passes

Search period start: 16 June 2021 00:00
Search period end: 26 June 2021 00:00
Orbit: 799 x 843 km, 98.9° (Epoch: 15 June)

Date Brightness Start Highest point End Pass type
(mag) Time Alt. Az. Time Alt. Az. Time Alt. Az.
16 Jun ? 21:36:17 10° ENE 21:37:53 11° NE 21:39:29 10° NE visible
16 Jun ? 23:15:45 51° SE 23:17:03 76° ENE 23:22:19 10° N visible
17 Jun ? 00:57:08 14° W 00:57:43 14° W 01:00:26 10° WNW visible
17 Jun ? 22:55:02 37° ESE 22:56:41 50° ENE 23:01:45 10° N visible
18 Jun ? 00:36:25 21° WSW 00:37:02 22° W 00:41:02 10° NW visible
18 Jun ? 22:34:20 25° ESE 22:36:22 34° ENE 22:41:02 10° N visible
19 Jun ? 00:15:42 31° WSW 00:16:25 33° W 00:21:08 10° NNW visible
19 Jun ? 22:13:37 17° E 22:16:07 23° ENE 22:20:11 10° NNE visible
19 Jun ? 23:55:00 45° SW 23:55:52 50° W 00:00:59 10° NNW visible
20 Jun ? 21:52:54 10° E 21:55:55 16° ENE 21:59:02 10° NNE visible
20 Jun ? 23:34:17 56° S 23:35:22 76° WSW 23:40:39 10° NNW visible
21 Jun ? 21:34:33 10° ENE 21:35:48 11° NE 21:37:03 10° NE visible
21 Jun ? 23:13:34 49° SE 23:14:56 72° ENE 23:20:11 10° N visible
22 Jun ? 00:54:57 15° W 00:55:33 15° W 00:58:29 10° NW visible
22 Jun ? 22:52:52 35° ESE 22:54:34 48° ENE 22:59:35 10° N visible
23 Jun ? 00:34:14 22° WSW 00:34:52 23° W 00:38:59 10° NW visible
23 Jun ? 22:32:09 24° ESE 22:34:15 32° ENE 22:38:52 10° N visible
24 Jun ? 00:13:32 33° WSW 00:14:15 34° W 00:19:02 10° NNW visible
24 Jun ? 22:11:26 16° E 22:13:59 22° ENE 22:17:58 10° NNE visible
24 Jun ? 23:52:49 47° SW 23:53:42 52° W 23:58:51 10° NNW visible
25 Jun ? 21:50:50 10° E 21:53:48 15° ENE 21:56:46 10° NNE visible
25 Jun ? 23:32:06 57° S 23:33:12 80° WSW 23:38:30 10° NNW visible
